01/28/20 04:25:11 UTC
318.050 MHz
LITCHFIELD, IL
**Delayed Post** 20:13 CST 509BW Interplane Frequency "Death23 to Mad Dog" (Mad Dog Whiteman AFB Command Post)
 
01/27/20 17:53:33 UTC
348.900 MHz
LITCHFIELD, IL
AR-111 Track Southern Missouri - OILER01 (KC135 Reg 58-0034) practice refueling ops with GORDO14 (E4-B Nighwatch Reg 73-1677)
 
01/27/20 17:08:07 UTC
307.375 MHz
HOPE, AR
HOG MOA TAC-Various Comms
 
01/27/20 17:06:18 UTC
225.500 MHz
HOPE, AR
Cleared to land at 17:30
 
01/27/20 16:51:09 UTC
234.700 MHz
HOPE, AR
CORRECTION BELOW-NOT 224.700.
 

01/16/20 15:58:46 UTC
395.225 MHz
Alt use-KHFF NOTAM-M0020/20 - PTD FREQ 395.225. 16 JAN 15:30 2020 UNTIL 11 APR 03:59 2020. CREATED: 16 JAN 15:30 2020 -AJ
 
01/13/20 03:16:07 UTC
11.175 MHz
global mil hf
 
01/11/20 18:08:16 UTC
4.724 MHz
EAM -sunflower
 
01/11/20 06:14:57 UTC
350.350 MHz
A to Air range ops from ANG Terrihaute ,,,,MOA,,,attibury
 
01/09/20 15:09:27 UTC
343.700 MHz
!RDU 01/062 SDZ COM REMOTE TRANS/REC 127.8, 343.7 U/S 2001131300-2001172200 -AJ
 
12/18/19 15:57:15 UTC
140.450 MHz
A2A "winds are 230 @ 11 knots 10 statute miles on the vis, calling overcast at 1100, 18 on the temp, 3001 for altemeter" "lead copies, we'll plan on ILS 23"12/10/19 0943h Later noted in use during drop operations in vic of Ft Bragg. Often simultaneously in use with 148.325 -AJ
 
12/18/19 15:47:23 UTC
228.100 MHz
A2A, 1 male & 1 female jet pilot "need little better co-ordination for the 'Pet The Jet'..." also mention of a ceremony and transient training. 12/12/19 ok rx -AJ
 



Facebook Group: Military Air & Space Communications.
2700+ members, logs, how too's & more. Please click the link and join.


MilRadioComms Website Stats and Page Views
Stats were started on 10/15/2018. This table lists each page of the MilRadioComms website along with the number of its each page has received from when these stats were started. The total page views of this website can been seen at the bottom of this table.

Advertising Banner Stats Since 10/26/18 - Total Impressions: 1244248

Webpage Views Since 10/15/2018:
ID#
Page
Hits
Date of Last Hit
8 mil_air_modes_logger.html 591296 01/28/20 12:44:50
22 hex_code_profile.php 338504 01/28/20 12:44:46
4 index.html 288269 01/28/20 12:41:41
165 mil_air_spotters_network_refresh.php 201555 01/28/20 10:47:44
10 search_frequency.php 130458 01/28/20 12:44:33
9 mil_air_spotters_network.html 23866 01/28/20 10:47:44
14 search_mil_hexcodes.html 10445 01/28/20 12:14:56
13 artcc_transmitter_locations.html 9605 01/28/20 11:10:23
33 mil_uhf_freq.html 8752 01/28/20 12:21:51
21 mil_freq_database.html 8602 01/28/20 10:40:07
16 uhf_facsfacjax.html 5662 01/28/20 12:29:17
32 refuel_tracks.html 5324 01/28/20 10:54:50
17 mil_hf_freq.html 4902 01/28/20 10:48:44
37 audio_library.html 4746 01/28/20 12:29:18
23 mil_hexcode_database.html 4678 01/28/20 12:16:24
27 aircraft_carrier.html 4224 01/28/20 07:34:36
69 search_spots_zipcode.php 4224 01/28/20 04:31:54
38 artcc_frequencies.html 3973 01/28/20 07:16:04
167 latest_frequencies.php 3791 01/28/20 12:44:29
26 mil_callsigns.html 3765 01/28/20 12:10:29
169 army_satellite_communications_manual.html 3547 01/28/20 10:58:35
75 ghfs.html 3176 01/28/20 09:03:04
28 search_callsigns.php 2866 01/28/20 04:39:48
34 arinc_coverage.html 2841 01/28/20 12:39:06
71 login_2.html 2792 01/28/20 11:57:22
11 scanner_articles.html 2642 01/28/20 11:51:20
15 milsat_antenna.html 2541 01/28/20 06:05:10
123 blue_angels_frequencies.html 2367 01/28/20 04:13:03
18 cothen.html 2254 01/28/20 09:11:44
35 tactical_brevity_codes.html 2244 01/28/20 11:07:19
39 artcc_radar_sites.html 2066 01/28/20 07:36:48
116 thunderbird_frequencies.html 1939 01/28/20 12:35:35
5 awacs_adiz_frequencies.html 1901 01/28/20 08:32:06
59 raspberry_pi_scanner_projects.html 1835 01/28/20 06:26:05
65 scanner_search_mode.html 1817 01/28/20 06:08:20
50 artcc_zma.html 1789 01/28/20 09:17:34
46 artcc_zjx.html 1757 01/28/20 09:10:30
60 police_fl_freq.html 1751 01/28/20 08:25:09
67 lineofsightcalculatormap.php 1749 01/28/20 12:04:21
19 killing_rf_noise.html 1650 01/27/20 19:40:09
53 artcc_zny.html 1645 01/28/20 08:36:28
42 artcc_zdc.html 1626 01/28/20 06:37:49
166 volmet_broadcast_frequencies.html 1596 01/28/20 12:31:15
58 product_reviews.html 1584 01/28/20 06:47:36
7 web_stats.html 1561 01/28/20 12:44:55
36 mil_air_spotters_network_help.html 1557 01/28/20 06:18:11
168 acars.html 1543 01/28/20 12:27:39
130 shack.html 1505 01/28/20 06:00:44
48 artcc_zla.html 1489 01/28/20 09:53:40
74 uhf_cap.html 1487 01/28/20 12:40:37
45 artcc_zid.html 1453 01/28/20 12:29:34
70 arinc_hf.html 1434 01/27/20 16:49:19
44 artcc_zfw.html 1426 01/28/20 12:35:14
80 secret_service.html 1416 01/28/20 11:13:26
51 artcc_zme.html 1412 01/28/20 12:23:09
29 older_stuff.html 1399 01/28/20 06:29:04
41 artcc_zbw.html 1365 01/28/20 05:48:14
49 artcc_zlc.html 1355 01/28/20 06:14:19
20 artcc_zhu.html 1341 01/28/20 10:47:43
55 artcc_zob.html 1338 01/28/20 08:40:05
57 artcc_ztl.html 1328 01/28/20 08:40:12
154 nellis_afb_range_chart.html 1328 01/28/20 05:54:44
68 map_milair_spots_v2.html 1327 01/27/20 19:10:54
40 artcc_zau.html 1317 01/28/20 06:26:38
61 editorials.html 1288 01/28/20 06:05:35
47 artcc_zkc.html 1284 01/28/20 10:43:33
66 raspberry_pi_dongle_streaming.html 1275 01/28/20 04:40:28
72 uscg.html 1268 01/28/20 05:15:44
126 icao_hf_enroute_networks.html 1268 01/27/20 17:41:49
6 raspberry_pi_scanner_streaming.html 1266 01/28/20 07:33:58
164 telint.html 1264 01/27/20 20:47:21
63 sam26000.html 1247 01/28/20 12:37:09
52 artcc_zmp.html 1238 01/28/20 12:30:41
54 artcc_zoa.html 1232 01/28/20 12:02:08
12 mode_s_sharing_windows.html 1231 01/28/20 05:08:16
24 artcc_zab.html 1231 01/28/20 06:02:24
122 avon_park_range.html 1231 01/28/20 10:07:27
108 pinecastle_range.html 1190 01/28/20 00:34:45
56 artcc_zse.html 1186 01/28/20 06:33:46
107 uhf_facsfacva.html 1172 01/28/20 12:20:59
64 microwave_letter_bands.html 1169 01/28/20 00:30:36
43 artcc_zdv.html 1140 01/28/20 06:28:08
76 facsfac.html 1126 01/27/20 20:24:13
93 link11.html 1039 01/27/20 23:16:15
73 hf_nasa.html 1019 01/27/20 17:27:25
101 antenna_mounted_amplifier.html 978 01/28/20 04:28:16
62 national_hurricane_operations_plan.html 960 01/27/20 19:00:10
145 mwara_north_america.html 957 01/28/20 12:03:03
91 raspberry_pi_setup.html 956 01/28/20 11:40:26
136 uhf_facsfacsd.html 948 01/28/20 09:28:28
112 review_pro2052.html 911 01/28/20 04:49:51
133 top_100_milair_frequencies.html 901 01/27/20 07:51:03
127 new_user.html 893 01/28/20 05:53:26
87 uhf_ksc.html 866 01/28/20 08:36:05
159 submit_spot_zipcode_v3.php 865 01/28/20 05:43:42
117 kosovo.html 859 01/28/20 02:49:07
30 mil_air_modes_status.html 856 01/27/20 11:36:02
129 raspberry_pi_fm_transmitter.html 853 01/28/20 06:21:24
118 coax_loss.html 826 01/26/20 04:10:46
89 raspberry_pi_portable_radar_system.html 814 01/24/20 23:32:05
96 police_fl_volusia.html 812 01/27/20 17:43:50
113 uhf_tinker.html 812 01/28/20 08:49:21
106 review_stridsberg_mca204.html 808 01/27/20 19:05:53
78 adsb_dongle_aircraft_radar.html 772 01/27/20 21:48:25
135 uhf_facsfacpn.html 770 01/28/20 10:35:53
120 adsb_how_to_use_it.html 768 01/27/20 21:58:54
139 war_iraq.html 753 01/28/20 11:58:31
105 review_scanner_beam.html 738 01/28/20 04:47:15
162 submit_callsign.php 729 01/26/20 21:08:46
97 uhf_selridge.html 708 01/27/20 23:17:42
119 adsb_dongle_raspberry_pi.html 691 01/27/20 06:16:38
25 iraq_us_propaganda_broadcast.html 684 01/28/20 03:35:33
83 sdr_noaa_satellite.html 681 01/28/20 01:24:15
110 mobile_radio_shack.html 654 01/27/20 17:32:23
31 map_mode_s_data.html 648 01/28/20 08:57:47
98 raspberry_pi_scanner_audio_controller.html 633 01/28/20 01:42:11
90 adsb_antenna.html 619 01/28/20 07:28:04
84 review_miltenna.html 597 01/27/20 23:52:12
137 uhf_ftriley.html 589 01/28/20 06:07:06
155 submit_new_user.php 584 01/28/20 01:19:56
131 shuttle_monitoring.html 583 01/27/20 04:00:52
86 police_fl_volusia_nontrunk.html 564 01/28/20 10:05:52
125 folding20.html 563 01/28/20 08:07:55
151 raspberry_pi_mode_s_sharing.html 559 01/26/20 22:31:15
134 uhf_facsfacph.html 538 01/27/20 09:58:49
111 gallery.html 528 01/27/20 18:06:02
124 edt_independence.html 526 01/27/20 18:02:59
94 milaircomms_themovie.html 525 01/28/20 02:27:55
140 whatis_facsfac.html 520 01/28/20 12:21:53
163 ad_info.html 518 01/25/20 22:35:32
104 davis_rf.html 486 01/27/20 18:37:28
146 search_airport_frequencies.php 485 01/24/20 22:49:38
92 police_fl_lakeland.html 473 01/28/20 10:43:33
160 mil_air_modes_logger_retrieve.php 471 01/27/20 14:00:12
128 police_fl_fpl.html 462 01/28/20 11:35:05
138 volusia_10_codes.html 459 01/28/20 12:40:49
100 ksc_launch_control_center_firing_room_4.html 455 01/28/20 05:37:51
82 constitution.html 443 01/28/20 12:27:29
149 mwara_mid_east.html 426 01/27/20 08:46:48
150 mwara_mid_east_2.html 426 01/27/20 20:25:12
88 search_airport_frequencies_zipcode.html 422 01/28/20 00:58:16
99 audio_customs_border_patrol.html 421 01/28/20 12:37:23
121 audio_sts107.html 421 01/26/20 14:21:33
114 audio_ua93.html 418 01/27/20 03:49:05
115 audio_sts113.html 414 01/26/20 10:14:58
81 daytonabeachf18lowpass.html 404 01/27/20 05:41:34
132 tbirddab.html 396 01/27/20 12:37:05
142 shuttle_sts108_photos.html 396 01/28/20 12:30:43
95 audio_dabemergency.html 394 01/28/20 09:37:42
148 iraq_maps.html 386 01/27/20 16:30:09
109 submarine.html 374 01/27/20 03:56:46
141 voa.html 373 01/27/20 08:25:32
152 sunspots.html 372 01/27/20 11:11:37
79 members_only.html 368 01/27/20 17:46:49
143 middle_east_shortwave.html 368 01/27/20 12:07:23
153 treasury_building_washington.html 348 01/27/20 03:58:40
147 atlantis_747_daytona_beach.html 338 01/27/20 07:10:00
144 faa_washington.html 329 01/27/20 13:36:55
77 submit_frequency.php 324 01/17/20 20:36:51
85 shuttle_photos.html 317 01/27/20 09:08:59
102 submit_spot_zipcode_v2.php 160 11/05/19 00:26:49
156 change_user_info.html 155 01/27/20 17:46:08
103 search_spots_email.php 89 01/26/20 01:45:37
161 mil_air_modes_logger_retrieve_text.php 47 01/03/20 02:43:59
157 update_user.php 41 01/15/20 19:39:07
158 mil_air_modes_logger_test_auto.html 8 11/03/18 00:02:18
170 1 04/25/19 18:45:43

Total MilRadioComms Page Views since 10/15/2018 = 1807948